Titsey, United Kingdom

7:15 PM GMT on February 22, 2017 (GMT +0000)
Biggin Hill

Weather History for EGKB - May, 2013

Change the Weather History Date:

Tuesday, May 7, 2013

  Actual Average Record
Temperature  
Mean Temperature 60 °F -  
Max Temperature 66 °F 57 °F 71 °F (2000)
Min Temperature 55 °F 46 °F 37 °F (1997)
Degree Days  
Heating Degree Days 4    
Growing Degree Days 10 (Base 50)    
Moisture  
Dew Point 44 °F    
Average Humidity 50    
Maximum Humidity 63    
Minimum Humidity 40    
Precipitation  
Precipitation 0.00 in - - ()
Sea Level Pressure  
Sea Level Pressure 30.02 in    
Wind  
Wind Speed 5 mph ()    
Max Wind Speed 9 mph    
Max Gust Speed -    
Visibility 6.2 miles    
Events Rain    
Averages and records for this station are not official NWS values.
T = Trace of Precipitation, MM = Missing Value Source: Averaged Metar Reports

Daily Weather History Graph

Daily Weather History Graph

Search for Another Location

Airport or City:

Trip Planner

Search our weather history database for the weather conditions in past years. The results will help you decide how hot, cold, wet, or windy it might be!

Date:

Astronomy

May. 07, 2013 Rise Set
Actual Time 5:21 AM BST 8:32 PM BST
Civil Twilight 4:42 AM BST 9:12 PM BST
Nautical Twilight 3:50 AM BST 10:04 PM BST
Astronomical Twilight 2:43 AM BST 11:13 PM BST
Moon 4:05 AM BST (5/7) 6:04 PM BST (5/7)
Length of Visible Light 16h 29m
Length of Day
15h 10m
Waning Crescent, 6% of the Moon is Illuminated
May 7
Waning Crescent
May 10
New
May 18
First Quarter
May 25
Full
May 31
Last Quarter

Hourly Weather History & Observations

Time (BST) Temp. Dew Point Humidity Pressure Visibility Wind Dir Wind Speed Gust Speed Precip Events Conditions
7:20 AM 55.4 °F 41.0 °F 58% 30.06 in - East 3.5 mph - N/A   Clear
7:50 AM 57.2 °F 44.6 °F 63% 30.06 in - ESE 6.9 mph - N/A   Clear
8:20 AM 59.0 °F 42.8 °F 55% 30.06 in - ESE 5.8 mph - N/A   Clear
8:50 AM 60.8 °F 42.8 °F 52% 30.06 in - East 8.1 mph - N/A   Clear
9:20 AM 60.8 °F 42.8 °F 52% 30.06 in - East 6.9 mph - N/A   Clear
9:50 AM 62.6 °F 42.8 °F 48% 30.06 in - East 8.1 mph - N/A   Clear
10:20 AM 62.6 °F 44.6 °F 52% 30.06 in - East 6.9 mph - N/A   Clear
10:50 AM 62.6 °F 44.6 °F 52% 30.06 in - Variable 4.6 mph - N/A   Clear
11:20 AM 64.4 °F 42.8 °F 45% 30.06 in - Variable 4.6 mph - N/A   Clear
11:50 AM 64.4 °F 42.8 °F 45% 30.06 in - ENE 2.3 mph - N/A   Clear
12:20 PM 64.4 °F 44.6 °F 49% 30.04 in - ESE 9.2 mph - N/A   Clear
12:50 PM 64.4 °F 46.4 °F 52% 30.04 in - SE 8.1 mph - N/A   Clear
1:20 PM 66.2 °F 46.4 °F 49% 30.04 in - Variable 4.6 mph - N/A   Clear
1:50 PM 66.2 °F 46.4 °F 49% 30.04 in - ESE 8.1 mph - N/A   Clear
2:20 PM 62.6 °F 44.6 °F 52% 30.04 in 6.2 mi ESE 8.1 mph - N/A Rain Light Rain Showers
2:50 PM 62.6 °F 44.6 °F 52% 30.04 in - SE 6.9 mph - N/A   Clear
3:20 PM 62.6 °F 44.6 °F 52% 30.01 in - East 5.8 mph - N/A   Clear
3:50 PM 64.4 °F 46.4 °F 52% 30.01 in - SE 5.8 mph - N/A   Clear
4:20 PM 64.4 °F 46.4 °F 52% 30.01 in - SE 4.6 mph - N/A   Clear
4:50 PM 66.2 °F 46.4 °F 49% 29.98 in - East 5.8 mph - N/A   Clear
5:20 PM 64.4 °F 46.4 °F 52% 29.98 in - ESE 6.9 mph - N/A   Clear
5:50 PM 64.4 °F 44.6 °F 49% 29.98 in - East 4.6 mph - N/A   Clear
6:20 PM 64.4 °F 42.8 °F 45% 29.95 in - East 6.9 mph - N/A   Clear
6:50 PM 64.4 °F 39.2 °F 40% 29.95 in - ENE 6.9 mph - N/A   Clear
7:20 PM 62.6 °F 39.2 °F 42% 29.95 in - East 5.8 mph - N/A   Clear
7:50 PM 60.8 °F 41.0 °F 48% 29.95 in - East 5.8 mph - N/A   Clear
8:20 PM 60.8 °F 42.8 °F 52% 29.95 in - East 6.9 mph - N/A   Clear